Time,TemperatureF,DewpointF,PressureIn,WindDirection,WindDirectionDegrees,WindSpeedMPH,WindSpeedGustMPH,Humidity,HourlyPrecipIn,Conditions,Clouds,dailyrainin,SoftwareType,DateUTC
2013-05-03 00:03:00,63.0,50.0,30.30,East,100,3.0,-999.0,63,-99.99,,,-99.99,,2013-05-03 04:03:00,
2013-05-03 00:12:00,63.0,50.0,30.30,East,80,3.0,-999.0,63,-99.99,,,-99.99,,2013-05-03 04:12:00,
2013-05-03 00:23:00,63.0,50.0,30.30,East,90,3.0,-999.0,63,-99.99,,,-99.99,,2013-05-03 04:23:00,
2013-05-03 00:32:00,63.0,50.0,30.30,North,0,0.0,-999.0,63,-99.99,,,-99.99,,2013-05-03 04:32:00,
2013-05-03 00:42:00,63.0,50.0,30.30,North,0,0.0,-999.0,63,-99.99,,,-99.99,,2013-05-03 04:42:00,
2013-05-03 00:52:00,63.0,50.0,30.30,East,80,3.0,-999.0,63,-99.99,,,-99.99,,2013-05-03 04:52:00,
2013-05-03 01:02:00,63.0,50.0,30.30,East,80,3.0,-999.0,63,-99.99,,,-99.99,,2013-05-03 05:02:00,
2013-05-03 01:12:00,63.0,50.0,30.30,East,80,6.0,-999.0,63,-99.99,,,-99.99,,2013-05-03 05:12:00,
2013-05-03 01:21:00,63.0,50.0,30.30,ENE,70,7.0,-999.0,63,-99.99,,,-99.99,,2013-05-03 05:21:00,
2013-05-03 01:32:00,63.0,50.0,30.30,East,100,6.0,-999.0,63,-99.99,,,-99.99,,2013-05-03 05:32:00,
2013-05-03 01:42:00,63.0,50.0,30.30,East,80,6.0,-999.0,63,-99.99,,,-99.99,,2013-05-03 05:42:00,
2013-05-03 01:52:00,61.0,50.0,30.30,East,90,5.0,-999.0,67,-99.99,,,-99.99,,2013-05-03 05:52:00,
2013-05-03 02:02:00,61.0,50.0,30.30,East,90,5.0,-999.0,67,-99.99,,,-99.99,,2013-05-03 06:02:00,
2013-05-03 02:12:00,61.0,50.0,30.30,East,80,7.0,-999.0,67,-99.99,,,-99.99,,2013-05-03 06:12:00,
2013-05-03 02:21:00,61.0,50.0,30.30,ENE,70,5.0,-999.0,67,-99.99,,,-99.99,,2013-05-03 06:21:00,
2013-05-03 02:32:00,61.0,50.0,30.30,ENE,70,5.0,-999.0,67,-99.99,,,-99.99,,2013-05-03 06:32:00,
2013-05-03 02:42:00,61.0,50.0,30.30,ENE,70,5.0,-999.0,67,-99.99,,,-99.99,,2013-05-03 06:42:00,
2013-05-03 02:51:00,61.0,50.0,30.30,ENE,70,5.0,-999.0,67,-99.99,,,-99.99,,2013-05-03 06:51:00,
2013-05-03 03:01:00,61.0,50.0,30.30,ENE,70,5.0,-999.0,67,-99.99,,,-99.99,,2013-05-03 07:01:00,
2013-05-03 03:11:00,61.0,48.0,30.31,ENE,70,8.0,-999.0,63,-99.99,,,-99.99,,2013-05-03 07:11:00,
2013-05-03 03:21:00,61.0,48.0,30.31,ENE,70,6.0,-999.0,63,-99.99,,,-99.99,,2013-05-03 07:21:00,
2013-05-03 03:32:00,61.0,48.0,30.31,East,80,6.0,-999.0,63,-99.99,,,-99.99,,2013-05-03 07:32:00,
2013-05-03 03:42:00,59.0,48.0,30.32,ENE,70,5.0,-999.0,67,-99.99,,,-99.99,,2013-05-03 07:42:00,
2013-05-03 03:52:00,59.0,48.0,30.32,ENE,60,6.0,-999.0,67,-99.99,,,-99.99,,2013-05-03 07:52:00,
2013-05-03 04:02:00,59.0,48.0,30.32,ENE,60,6.0,-999.0,67,-99.99,,,-99.99,,2013-05-03 08:02:00,
2013-05-03 04:11:00,57.0,48.0,30.32,East,80,3.0,-999.0,71,-99.99,,,-99.99,,2013-05-03 08:11:00,
2013-05-03 04:21:00,57.0,48.0,30.33,East,80,5.0,-999.0,71,-99.99,,,-99.99,,2013-05-03 08:21:00,
2013-05-03 04:32:00,57.0,48.0,30.33,ENE,70,6.0,-999.0,71,-99.99,,,-99.99,,2013-05-03 08:32:00,
2013-05-03 04:42:00,57.0,48.0,30.33,ENE,70,5.0,-999.0,71,-99.99,,,-99.99,,2013-05-03 08:42:00,
2013-05-03 04:52:00,57.0,48.0,30.34,ENE,70,6.0,-999.0,71,-99.99,,,-99.99,,2013-05-03 08:52:00,
2013-05-03 05:01:00,57.0,48.0,30.34,ENE,70,6.0,-999.0,71,-99.99,,,-99.99,,2013-05-03 09:01:00,
2013-05-03 05:12:00,57.0,48.0,30.34,ENE,70,3.0,-999.0,71,-99.99,,,-99.99,,2013-05-03 09:12:00,
2013-05-03 05:21:00,55.0,48.0,30.34,ENE,60,7.0,-999.0,76,-99.99,,,-99.99,,2013-05-03 09:21:00,
2013-05-03 05:32:00,55.0,48.0,30.35,ENE,60,3.0,-999.0,76,-99.99,,,-99.99,,2013-05-03 09:32:00,
2013-05-03 05:42:00,55.0,48.0,30.35,ENE,60,3.0,-999.0,76,-99.99,,,-99.99,,2013-05-03 09:42:00,
2013-05-03 05:52:00,54.0,48.0,30.35,East,80,3.0,-999.0,81,-99.99,,,-99.99,,2013-05-03 09:52:00,
2013-05-03 06:03:00,54.0,48.0,30.35,East,80,3.0,-999.0,81,-99.99,,,-99.99,,2013-05-03 10:03:00,
2013-05-03 06:12:00,55.0,48.0,30.36,East,80,5.0,-999.0,76,-99.99,,,-99.99,,2013-05-03 10:12:00,
2013-05-03 06:22:00,55.0,48.0,30.37,North,0,0.0,-999.0,76,-99.99,,,-99.99,,2013-05-03 10:22:00,
2013-05-03 06:32:00,55.0,48.0,30.37,ESE,110,3.0,-999.0,76,-99.99,,,-99.99,,2013-05-03 10:32:00,
2013-05-03 06:42:00,57.0,46.0,30.37,ENE,70,3.0,-999.0,67,-99.99,,,-99.99,,2013-05-03 10:42:00,
2013-05-03 06:52:00,55.0,50.0,30.38,ENE,70,5.0,-999.0,81,-99.99,,,-99.99,,2013-05-03 10:52:00,
2013-05-03 07:02:00,55.0,50.0,30.38,ENE,70,5.0,-999.0,81,-99.99,,,-99.99,,2013-05-03 11:02:00,
2013-05-03 07:11:00,57.0,48.0,30.38,East,90,3.0,-999.0,71,-99.99,,,-99.99,,2013-05-03 11:11:00,
2013-05-03 07:22:00,61.0,46.0,30.38,North,0,0.0,-999.0,59,-99.99,,,-99.99,,2013-05-03 11:22:00,
2013-05-03 07:32:00,61.0,46.0,30.38,SSE,150,6.0,-999.0,59,-99.99,,,-99.99,,2013-05-03 11:32:00,
2013-05-03 07:42:00,61.0,43.0,30.38,SSE,150,7.0,-999.0,51,-99.99,,,-99.99,,2013-05-03 11:42:00,
2013-05-03 07:51:00,61.0,43.0,30.38,SSE,150,6.0,-999.0,51,-99.99,,,-99.99,,2013-05-03 11:51:00,
2013-05-03 08:02:00,61.0,43.0,30.38,SSE,150,6.0,-999.0,51,-99.99,,,-99.99,,2013-05-03 12:02:00,
2013-05-03 08:11:00,63.0,41.0,30.38,SE,140,6.0,-999.0,45,-99.99,,,-99.99,,2013-05-03 12:11:00,
2013-05-03 08:21:00,64.0,39.0,30.38,SE,140,8.0,-999.0,39,-99.99,,,-99.99,,2013-05-03 12:21:00,
2013-05-03 08:32:00,64.0,39.0,30.38,SSE,150,5.0,-999.0,39,-99.99,,,-99.99,,2013-05-03 12:32:00,
2013-05-03 08:42:00,64.0,41.0,30.38,South,170,7.0,-999.0,42,-99.99,,,-99.99,,2013-05-03 12:42:00,
2013-05-03 08:51:00,64.0,39.0,30.38,SSE,160,9.0,-999.0,39,-99.99,,,-99.99,,2013-05-03 12:51:00,
2013-05-03 09:01:00,64.0,39.0,30.38,SSE,160,9.0,-999.0,39,-99.99,,,-99.99,,2013-05-03 13:01:00,
2013-05-03 09:11:00,66.0,39.0,30.39,South,170,7.0,-999.0,37,-99.99,,,-99.99,,2013-05-03 13:11:00,
2013-05-03 09:22:00,66.0,39.0,30.39,SSW,200,8.0,-999.0,37,-99.99,,,-99.99,,2013-05-03 13:22:00,
2013-05-03 09:32:00,66.0,39.0,30.38,SSW,200,8.0,-999.0,37,-99.99,,,-99.99,,2013-05-03 13:32:00,
2013-05-03 09:42:00,66.0,39.0,30.38,South,190,8.0,-999.0,37,-99.99,,,-99.99,,2013-05-03 13:42:00,
2013-05-03 09:52:00,66.0,39.0,30.38,SW,220,7.0,-999.0,37,-99.99,,,-99.99,,2013-05-03 13:52:00,
2013-05-03 10:02:00,66.0,39.0,30.38,SW,220,7.0,-999.0,37,-99.99,,,-99.99,,2013-05-03 14:02:00,
2013-05-03 10:11:00,68.0,41.0,30.38,WSW,240,3.0,-999.0,37,-99.99,,,-99.99,,2013-05-03 14:11:00,
2013-05-03 10:22:00,68.0,41.0,30.38,South,180,5.0,-999.0,37,-99.99,,,-99.99,,2013-05-03 14:22:00,
2013-05-03 10:32:00,68.0,39.0,30.38,North,0,0.0,-999.0,34,-99.99,,,-99.99,,2013-05-03 14:32:00,
2013-05-03 10:42:00,68.0,41.0,30.38,SSE,160,5.0,-999.0,37,-99.99,,,-99.99,,2013-05-03 14:42:00,
2013-05-03 10:52:00,70.0,43.0,30.38,SW,220,7.0,-999.0,37,-99.99,,,-99.99,,2013-05-03 14:52:00,
2013-05-03 11:01:00,70.0,43.0,30.38,SW,220,7.0,-999.0,37,-99.99,,,-99.99,,2013-05-03 15:01:00,
2013-05-03 11:11:00,70.0,39.0,30.37,SW,220,5.0,-999.0,32,-99.99,,,-99.99,,2013-05-03 15:11:00,
2013-05-03 11:22:00,70.0,41.0,30.37,NNW,330,3.0,-999.0,35,-99.99,,,-99.99,,2013-05-03 15:22:00,
2013-05-03 11:32:00,72.0,43.0,30.37,WSW,240,5.0,-999.0,35,-99.99,,,-99.99,,2013-05-03 15:32:00,
2013-05-03 11:43:00,72.0,43.0,30.37,South,180,5.0,-999.0,35,-99.99,,,-99.99,,2013-05-03 15:43:00,
2013-05-03 11:53:00,72.0,43.0,30.36,SSE,160,3.0,-999.0,35,-99.99,,,-99.99,,2013-05-03 15:53:00,
2013-05-03 12:03:00,72.0,43.0,30.36,SSE,160,3.0,-999.0,35,-99.99,,,-99.99,,2013-05-03 16:03:00,
2013-05-03 12:13:00,72.0,43.0,30.35,NNW,340,6.0,16.0,35,-99.99,,,-99.99,,2013-05-03 16:13:00,
2013-05-03 12:23:00,72.0,43.0,30.35,WNW,300,3.0,-999.0,35,-99.99,,,-99.99,,2013-05-03 16:23:00,
2013-05-03 12:32:00,72.0,43.0,30.34,North,0,0.0,-999.0,35,-99.99,,,-99.99,,2013-05-03 16:32:00,
2013-05-03 12:42:00,72.0,43.0,30.34,NW,310,6.0,-999.0,35,-99.99,,,-99.99,,2013-05-03 16:42:00,
2013-05-03 12:52:00,73.0,43.0,30.34,ENE,60,5.0,-999.0,33,-99.99,,,-99.99,,2013-05-03 16:52:00,
2013-05-03 13:02:00,73.0,43.0,30.34,ENE,60,5.0,-999.0,33,-99.99,,,-99.99,,2013-05-03 17:02:00,
2013-05-03 13:12:00,73.0,45.0,30.33,WSW,250,3.0,-999.0,35,-99.99,,,-99.99,,2013-05-03 17:12:00,
2013-05-03 13:23:00,73.0,43.0,30.33,SE,130,5.0,-999.0,33,-99.99,,,-99.99,,2013-05-03 17:23:00,
2013-05-03 13:32:00,73.0,43.0,30.32,NE,50,6.0,-999.0,33,-99.99,,,-99.99,,2013-05-03 17:32:00,
2013-05-03 13:42:00,73.0,43.0,30.32,NNE,20,3.0,-999.0,33,-99.99,,,-99.99,,2013-05-03 17:42:00,
2013-05-03 13:52:00,73.0,43.0,30.32,North,0,0.0,-999.0,33,-99.99,,,-99.99,,2013-05-03 17:52:00,
2013-05-03 14:01:00,73.0,43.0,30.32,North,0,0.0,-999.0,33,-99.99,,,-99.99,,2013-05-03 18:01:00,
2013-05-03 14:12:00,75.0,43.0,30.31,ESE,120,7.0,-999.0,31,-99.99,,,-99.99,,2013-05-03 18:12:00,
2013-05-03 14:21:00,75.0,43.0,30.31,NNE,30,5.0,-999.0,31,-99.99,,,-99.99,,2013-05-03 18:21:00,
2013-05-03 14:32:00,75.0,45.0,30.30,NNE,30,10.0,-999.0,33,-99.99,,,-99.99,,2013-05-03 18:32:00,
2013-05-03 14:42:00,75.0,46.0,30.30,NE,40,9.0,-999.0,35,-99.99,,,-99.99,,2013-05-03 18:42:00,
2013-05-03 14:51:00,75.0,45.0,30.30,ENE,60,6.0,-999.0,33,-99.99,,,-99.99,,2013-05-03 18:51:00,
2013-05-03 15:01:00,75.0,45.0,30.30,ENE,60,6.0,-999.0,33,-99.99,,,-99.99,,2013-05-03 19:01:00,
2013-05-03 15:11:00,75.0,45.0,30.30,ENE,60,6.0,-999.0,33,-99.99,,,-99.99,,2013-05-03 19:11:00,
2013-05-03 15:21:00,75.0,45.0,30.29,NE,50,6.0,16.0,33,-99.99,,,-99.99,,2013-05-03 19:21:00,
2013-05-03 15:32:00,75.0,45.0,30.29,NE,40,12.0,-999.0,33,-99.99,,,-99.99,,2013-05-03 19:32:00,
2013-05-03 15:42:00,75.0,45.0,30.28,NE,40,12.0,-999.0,33,-99.99,,,-99.99,,2013-05-03 19:42:00,
2013-05-03 15:52:00,75.0,45.0,30.28,ENE,60,9.0,-999.0,33,-99.99,,,-99.99,,2013-05-03 19:52:00,
2013-05-03 16:02:00,75.0,45.0,30.28,ENE,60,9.0,-999.0,33,-99.99,,,-99.99,,2013-05-03 20:02:00,
2013-05-03 16:11:00,75.0,43.0,30.28,NNE,30,12.0,16.0,31,-99.99,,,-99.99,,2013-05-03 20:11:00,
2013-05-03 16:21:00,75.0,43.0,30.27,NNE,30,15.0,21.0,31,-99.99,,,-99.99,,2013-05-03 20:21:00,
2013-05-03 16:32:00,75.0,43.0,30.27,NE,50,8.0,12.0,31,-99.99,,,-99.99,,2013-05-03 20:32:00,
2013-05-03 16:42:00,75.0,43.0,30.27,NE,50,13.0,18.0,31,-99.99,,,-99.99,,2013-05-03 20:42:00,
2013-05-03 16:52:00,75.0,43.0,30.27,NE,40,12.0,-999.0,31,-99.99,,,-99.99,,2013-05-03 20:52:00,
2013-05-03 17:01:00,75.0,43.0,30.27,NE,40,12.0,-999.0,31,-99.99,,,-99.99,,2013-05-03 21:01:00,
2013-05-03 17:11:00,75.0,43.0,30.26,NNE,30,12.0,-999.0,31,-99.99,,,-99.99,,2013-05-03 21:11:00,
2013-05-03 17:21:00,75.0,43.0,30.26,NE,40,10.0,-999.0,31,-99.99,,,-99.99,,2013-05-03 21:21:00,
2013-05-03 17:33:00,75.0,43.0,30.26,NE,50,12.0,16.0,31,-99.99,,,-99.99,,2013-05-03 21:33:00,
2013-05-03 17:42:00,75.0,41.0,30.26,NE,40,9.0,16.0,29,-99.99,,,-99.99,,2013-05-03 21:42:00,
2013-05-03 17:52:00,73.0,39.0,30.26,ENE,60,10.0,17.0,28,-99.99,,,-99.99,,2013-05-03 21:52:00,
2013-05-03 18:03:00,73.0,39.0,30.26,ENE,60,10.0,17.0,28,-99.99,,,-99.99,,2013-05-03 22:03:00,
2013-05-03 18:13:00,73.0,41.0,30.26,NE,40,13.0,17.0,31,-99.99,,,-99.99,,2013-05-03 22:13:00,
2013-05-03 18:22:00,73.0,39.0,30.26,NE,40,13.0,-999.0,28,-99.99,,,-99.99,,2013-05-03 22:22:00,
2013-05-03 18:32:00,73.0,39.0,30.26,NE,50,13.0,-999.0,28,-99.99,,,-99.99,,2013-05-03 22:32:00,
2013-05-03 18:42:00,73.0,37.0,30.26,NE,40,12.0,-999.0,26,-99.99,,,-99.99,,2013-05-03 22:42:00,
2013-05-03 18:52:00,73.0,39.0,30.26,NNE,30,12.0,-999.0,28,-99.99,,,-99.99,,2013-05-03 22:52:00,
2013-05-03 19:02:00,73.0,39.0,30.26,NNE,30,12.0,-999.0,28,-99.99,,,-99.99,,2013-05-03 23:02:00,
2013-05-03 19:11:00,72.0,39.0,30.26,NE,50,8.0,-999.0,30,-99.99,,,-99.99,,2013-05-03 23:11:00,
2013-05-03 19:22:00,72.0,39.0,30.26,NE,50,12.0,-999.0,30,-99.99,,,-99.99,,2013-05-03 23:22:00,
2013-05-03 19:31:00,70.0,39.0,30.26,NE,40,8.0,-999.0,32,-99.99,,,-99.99,,2013-05-03 23:31:00,
2013-05-03 19:41:00,70.0,39.0,30.26,NE,40,7.0,-999.0,32,-99.99,,,-99.99,,2013-05-03 23:41:00,
2013-05-03 19:52:00,68.0,39.0,30.26,NNE,30,6.0,-999.0,34,-99.99,,,-99.99,,2013-05-03 23:52:00,
2013-05-03 20:01:00,68.0,39.0,30.26,NNE,30,6.0,-999.0,34,-99.99,,,-99.99,,2013-05-04 00:01:00,
2013-05-03 20:11:00,66.0,39.0,30.26,NE,40,6.0,-999.0,37,-99.99,,,-99.99,,2013-05-04 00:11:00,
2013-05-03 20:23:00,64.0,39.0,30.26,NNE,30,6.0,-999.0,39,-99.99,,,-99.99,,2013-05-04 00:23:00,
2013-05-03 20:32:00,64.0,37.0,30.26,NNE,30,5.0,-999.0,36,-99.99,,,-99.99,,2013-05-04 00:32:00,
2013-05-03 20:41:00,64.0,37.0,30.26,NE,40,5.0,-999.0,36,-99.99,,,-99.99,,2013-05-04 00:41:00,
2013-05-03 20:52:00,64.0,37.0,30.26,North,0,0.0,-999.0,36,-99.99,,,-99.99,,2013-05-04 00:52:00,
2013-05-03 21:01:00,64.0,37.0,30.26,North,0,0.0,-999.0,36,-99.99,,,-99.99,,2013-05-04 01:01:00,
2013-05-03 21:11:00,63.0,37.0,30.27,North,0,0.0,-999.0,39,-99.99,,,-99.99,,2013-05-04 01:11:00,
2013-05-03 21:21:00,63.0,39.0,30.27,North,0,0.0,-999.0,41,-99.99,,,-99.99,,2013-05-04 01:21:00,
2013-05-03 21:32:00,59.0,43.0,30.27,North,0,0.0,-999.0,54,-99.99,,,-99.99,,2013-05-04 01:32:00,
2013-05-03 21:41:00,57.0,43.0,30.28,SSE,160,5.0,-999.0,58,-99.99,,,-99.99,,2013-05-04 01:41:00,
2013-05-03 21:52:00,57.0,43.0,30.28,North,0,0.0,-999.0,58,-99.99,,,-99.99,,2013-05-04 01:52:00,
2013-05-03 22:02:00,57.0,43.0,30.28,North,0,0.0,-999.0,58,-99.99,,,-99.99,,2013-05-04 02:02:00,
2013-05-03 22:11:00,55.0,41.0,30.28,North,0,0.0,-999.0,58,-99.99,,,-99.99,,2013-05-04 02:11:00,
2013-05-03 22:21:00,57.0,43.0,30.29,North,0,0.0,-999.0,58,-99.99,,,-99.99,,2013-05-04 02:21:00,
2013-05-03 22:32:00,55.0,43.0,30.29,North,0,0.0,-999.0,62,-99.99,,,-99.99,,2013-05-04 02:32:00,
2013-05-03 22:42:00,55.0,43.0,30.29,South,170,3.0,-999.0,62,-99.99,,,-99.99,,2013-05-04 02:42:00,
2013-05-03 22:52:00,61.0,36.0,30.29,SSE,160,5.0,-999.0,38,-99.99,,,-99.99,,2013-05-04 02:52:00,
2013-05-03 23:02:00,61.0,36.0,30.29,SSE,160,5.0,-999.0,38,-99.99,,,-99.99,,2013-05-04 03:02:00,
2013-05-03 23:11:00,61.0,34.0,30.29,South,180,5.0,-999.0,36,-99.99,,,-99.99,,2013-05-04 03:11:00,
2013-05-03 23:22:00,61.0,34.0,30.29,South,190,5.0,-999.0,36,-99.99,,,-99.99,,2013-05-04 03:22:00,
2013-05-03 23:33:00,63.0,34.0,30.29,South,190,3.0,-999.0,33,-99.99,,,-99.99,,2013-05-04 03:33:00,
2013-05-03 23:43:00,63.0,34.0,30.29,South,180,3.0,-999.0,33,-99.99,,,-99.99,,2013-05-04 03:43:00,
2013-05-03 23:52:00,61.0,34.0,30.29,South,180,5.0,-999.0,36,-99.99,,,-99.99,,2013-05-04 03:52:00,